{"data":{"norad_id":55010,"intl_designator":"2023-001B","name":"MENUT","alt_names":[],"object_type":"PAYLOAD","status":"ACTIVE","operator":null,"country":"SPN","launch_date":"2023-01-03","launch_site_code":"AFETR","launch_vehicle":null,"mission":null,"orbit_class":"UNKNOWN","rcs_meters":null,"size_class":null,"mass_kg":null,"dimensions":null,"purposes":[],"wikipedia_slug":null,"has_3d_model":false,"image_url":null,"decayed_at":null,"tle_current":{"epoch":"2026-09-21T22:45:55.755072Z","epoch_age_seconds":39932,"freshness":"FRESH","line1":"1 55010U 23001B   26264.94856198  .00131225  00000+0  74472-3 0  9997","line2":"2 55010  97.2989 336.9192 0002797 152.0119 208.1299 15.78653512207568","mean_motion":15.78653512,"eccentricity":0.0002797,"inclination_deg":97.2989,"raan_deg":336.9192,"arg_perigee_deg":152.0119,"mean_anomaly_deg":208.1299,"bstar":0.00074472,"rev_number":20756,"period_min":91.216976306325,"perigee_km":332.3772884955,"apogee_km":336.13220043736,"semimajor_km":6712.3917444664,"source":"CELESTRAK","updated_at":"2026-09-22T09:00:25.264124Z"}}}